GFSSW_925_thetae_159.txt.gz
Theta_e
312 312 316 318 317 315 312 312 310 310 313 315 313 306 310 315 316 321 323 320 322 325 325 326 326 326 327 326 329 326 329 325 327 330 329 324 327 325 324 328 328 329 332 333 337
313 312 312 313 318 318 316 312 311 311 310 315 314 310 306 315 317 322 315 319 320 322 326 326 325 326 325 326 329 328 328 328 323 325 331 328 325 325 326 326 328 333 335 336 336
312 312 313 313 312 317 318 316 313 312 311 312 315 312 307 315 321 316 306 309 319 319 324 326 326 325 327 325 327 329 331 328 327 328 330 331 329 323 324 326 325 329 335 334 335
311 311 311 312 314 312 316 317 314 313 312 311 315 313 308 316 306 320 317 312 314 320 321 324 326 327 326 325 324 328 325 326 327 325 330 331 329 328 323 322 323 323 334 333 333
309 310 310 311 312 312 311 317 317 314 314 311 314 313 311 317 316 320 320 317 316 320 320 325 325 325 326 322 321 323 324 325 325 324 325 328 330 329 326 324 323 327 334 333 332
308 308 309 310 311 313 311 313 317 317 314 313 312 314 314 312 308 312 320 319 320 319 322 323 323 322 322 321 320 320 322 325 325 323 323 326 327 327 326 323 323 320 326 331 331
307 307 307 308 309 309 312 311 313 317 316 313 313 315 313 309 307 308 314 321 321 320 321 322 323 322 321 322 321 321 322 320 322 323 324 324 326 327 324 324 325 324 319 319 331
306 306 306 306 307 308 310 312 311 313 316 315 313 314 315 312 309 309 311 320 323 323 321 321 322 321 323 321 321 322 321 324 323 323 322 323 326 324 321 322 323 323 321 319 320
304 305 305 306 305 306 307 310 311 310 311 316 315 313 316 313 311 309 310 318 324 322 322 322 322 322 323 323 323 321 322 322 322 320 320 321 324 322 321 321 319 316 317 319 318
303 303 304 306 305 304 307 308 310 311 310 313 315 314 313 314 311 311 309 311 322 322 323 323 321 322 322 322 323 323 322 321 320 319 320 321 320 319 320 319 318 317 316 317 319
303 303 303 304 306 306 306 309 310 311 311 313 315 313 313 312 312 311 309 315 320 320 323 321 323 324 322 323 320 319 319 320 319 318 318 316 318 317 317 318 318 317 316 316 316
302 303 303 304 305 306 307 309 308 309 311 310 311 313 312 312 312 310 309 319 319 321 320 322 323 320 320 322 323 322 322 322 319 318 316 317 317 315 317 318 317 317 316 316 315
302 302 303 303 303 305 307 308 307 307 310 311 310 312 312 312 312 311 310 317 319 320 321 320 318 318 319 321 324 323 323 322 321 319 319 320 320 319 317 317 316 316 316 315 315
301 302 302 301 303 304 306 306 306 307 309 310 312 311 313 312 315 310 309 315 318 318 319 319 316 319 320 321 321 323 319 320 320 321 322 319 323 317 317 317 317 317 315 315 314
300 301 301 302 301 303 304 306 306 306 309 309 311 312 312 313 312 311 309 312 316 318 317 317 318 319 320 321 318 320 318 318 319 320 321 320 324 320 317 318 317 316 313 313 313
300 301 301 302 301 302 302 305 305 308 310 311 311 314 314 313 311 311 311 311 314 316 316 315 315 317 318 318 318 318 319 319 319 320 325 321 320 319 317 317 317 315 313 314 313
300 300 301 301 301 301 302 304 307 309 306 310 311 313 313 314 313 312 313 314 317 318 318 316 316 315 316 318 317 318 319 322 324 324 322 315 320 320 316 315 314 314 312 311 311
300 300 300 300 299 300 302 306 307 307 307 308 311 313 313 313 314 313 314 315 314 314 316 317 318 316 315 317 319 320 320 318 316 319 318 314 321 319 316 316 315 315 315 314 312
300 300 300 300 300 300 301 303 307 307 306 310 310 311 312 314 313 313 314 314 313 314 314 315 314 311 313 315 316 318 321 317 314 309 313 317 318 317 317 316 313 314 315 314 311
299 299 299 299 300 300 301 302 305 305 306 309 311 310 312 312 314 314 314 314 313 314 311 311 313 312 312 314 315 316 316 321 320 320 321 316 318 320 318 317 315 314 311 312 310
298 299 298 298 298 299 302 302 303 303 306 308 310 312 311 312 313 314 313 313 312 312 313 311 310 311 313 316 316 318 318 317 315 314 315 316 318 313 315 315 312 311 312 312 311
297 298 298 298 298 301 302 302 302 303 303 306 306 310 310 313 313 314 313 312 311 311 314 312 313 310 313 313 313 315 317 317 317 318 318 316 317 315 314 313 312 314 312 309 309
298 298 299 298 300 301 301 303 302 303 301 304 306 307 308 312 313 312 312 311 311 311 313 313 314 311 314 314 313 315 316 317 317 314 315 318 316 311 312 311 311 310 309 308 308
297 298 299 299 298 298 300 302 303 303 304 302 305 306 309 311 311 312 312 311 311 311 313 313 313 312 313 312 314 316 315 316 317 318 317 317 315 314 312 311 310 310 307 306 306
297 298 295 300 298 300 299 301 302 303 303 303 304 304 307 312 311 310 311 311 312 312 313 313 314 312 312 311 313 314 315 315 316 316 315 314 313 312 311 311 311 309 307 307 307
294 297 296 299 296 298 300 299 302 304 304 303 304 304 304 305 311 311 311 312 313 312 312 312 314 310 307 312 311 310 311 314 315 315 316 314 314 311 310 307 308 307 307 307 306
295 297 295 299 297 298 298 300 299 300 302 304 303 305 305 306 305 308 309 309 309 312 313 312 310 313 313 310 310 307 309 309 309 311 313 315 314 312 309 310 309 307 306 306 306

GFSSW_925_thetae_162.txt.gz
Theta_e
312 314 313 314 317 317 316 314 312 311 312 313 314 312 306 308 314 316 320 317 316 314 317 319 322 325 325 325 327 323 326 326 326 328 330 323 326 323 323 328 327 331 330 331 336
313 313 314 313 313 316 318 316 314 312 311 311 314 314 310 307 315 319 310 310 316 321 324 324 324 325 323 325 326 326 326 326 321 327 330 328 324 323 325 325 329 334 334 334 336
311 311 312 314 313 312 314 318 317 313 312 312 312 315 312 309 317 314 304 303 308 319 322 325 326 324 326 323 325 327 329 326 326 328 329 329 329 325 323 325 325 329 335 333 334
311 311 311 311 312 313 312 313 318 317 313 313 311 315 312 313 303 317 317 310 306 318 319 323 325 326 326 323 322 327 326 326 325 324 325 329 329 328 324 322 321 320 334 333 331
309 310 309 310 311 311 312 313 312 317 316 313 312 315 312 313 313 320 322 317 311 319 321 322 325 324 325 323 320 321 324 323 322 322 323 323 327 328 327 323 322 329 333 332 332
307 307 308 308 309 309 311 313 312 312 317 314 313 314 312 311 309 311 316 318 313 319 321 322 323 321 322 321 319 319 320 320 323 323 322 323 323 325 324 323 323 329 332 331 331
306 306 307 307 307 308 309 311 312 311 316 317 314 314 314 311 309 308 309 322 317 320 320 320 323 321 320 322 319 320 322 320 320 321 323 321 323 325 322 322 323 323 320 327 330
305 305 306 306 306 306 307 308 311 312 312 317 314 314 314 313 312 308 310 311 321 320 318 317 321 320 321 320 321 322 319 323 320 321 321 322 324 321 319 320 321 320 318 318 318
304 304 304 305 305 306 305 307 309 312 311 313 316 314 315 313 312 312 310 310 323 322 321 319 320 319 321 322 322 320 321 321 320 319 321 321 322 320 318 319 318 316 316 315 316
303 303 303 304 306 306 305 305 307 310 311 312 313 314 312 313 313 312 311 310 322 321 321 321 321 320 319 323 323 322 322 320 320 319 318 319 319 317 316 318 318 317 315 314 314
303 303 303 303 303 305 307 306 308 309 311 312 313 315 312 312 312 311 310 309 316 320 323 321 324 322 321 322 318 319 318 319 318 318 318 317 318 318 317 315 316 316 314 314 314
303 303 302 303 303 303 305 306 307 308 311 311 312 314 312 312 313 311 311 311 319 320 319 323 322 318 316 320 321 317 319 318 317 316 316 316 317 315 312 315 314 316 315 315 314
302 302 303 304 304 304 304 305 306 308 309 310 311 312 312 312 313 312 309 312 319 319 321 320 317 317 318 320 323 321 320 318 320 318 317 319 320 318 316 314 315 315 314 314 314
301 302 303 303 303 303 303 302 304 307 309 310 312 311 311 313 315 311 309 314 317 319 319 319 315 318 319 321 321 321 320 318 319 320 319 317 321 317 316 315 314 314 313 312 311
301 302 302 302 301 302 302 302 303 305 310 308 309 309 310 314 313 312 309 313 317 317 317 318 318 318 320 320 320 318 318 320 318 318 319 319 320 317 316 316 315 314 312 311 311
301 302 301 301 301 300 301 302 304 308 309 309 309 311 312 313 313 312 311 311 313 316 316 315 314 316 318 316 317 316 317 317 317 320 322 319 319 316 314 315 313 312 311 311 311
301 301 300 301 301 301 301 303 306 308 306 310 312 312 311 314 314 313 313 312 316 318 318 316 315 315 315 317 316 317 318 310 323 323 320 314 318 317 313 312 312 312 311 310 309
300 300 300 300 300 300 302 303 306 306 308 309 310 312 313 311 313 313 313 313 313 313 316 316 318 315 314 317 319 319 318 317 312 314 316 313 319 316 314 313 313 312 312 311 309
300 300 300 300 300 300 301 303 304 303 306 310 309 311 312 311 313 313 313 313 313 313 314 316 314 311 313 314 316 318 321 315 312 307 310 313 314 314 314 313 312 310 310 312 311
299 299 299 299 300 300 301 301 302 303 305 308 310 309 311 311 312 314 312 312 312 313 310 311 313 310 313 313 314 316 315 320 316 316 317 315 316 314 315 315 312 313 310 309 309
299 299 299 299 299 300 300 299 299 301 302 306 308 309 308 309 312 313 313 312 311 312 312 310 310 309 311 314 317 317 317 315 314 314 314 313 313 310 312 310 311 310 310 309 308
296 298 298 299 300 299 299 296 300 300 302 303 306 308 308 309 310 311 312 311 310 311 314 312 310 310 313 312 312 315 315 315 316 314 311 312 312 312 311 310 310 311 309 310 307
297 297 298 298 299 296 294 298 302 301 303 303 305 308 308 309 310 311 311 310 310 310 313 313 314 313 314 314 314 314 315 315 314 312 315 316 314 311 312 310 312 311 310 310 310
297 297 298 297 296 295 294 299 300 302 302 303 304 305 308 308 310 309 310 309 310 311 312 312 313 314 313 312 313 314 314 315 316 317 314 314 311 310 311 311 311 309 307 306 306
297 297 297 299 298 297 298 300 302 304 303 302 302 304 304 306 308 310 309 310 310 311 312 313 315 313 310 311 312 313 314 315 317 315 315 313 313 312 310 310 310 305 306 306 305
296 297 296 292 297 298 300 300 301 303 304 304 302 302 303 300 308 309 310 312 312 311 311 312 314 313 312 312 311 312 313 314 315 315 315 312 311 309 307 306 307 307 306 305 305
293 294 295 298 299 299 299 298 299 301 301 302 302 303 303 302 303 305 304 305 309 312 313 313 313 313 316 313 313 312 311 313 313 313 314 315 313 309 309 309 308 306 305 305 303

GFSSW_925_thetae_165.txt.gz
Theta_e
312 312 315 315 314 317 317 317 314 312 311 313 314 314 312 307 307 312 314 311 314 313 313 313 315 321 324 323 324 321 325 324 326 328 329 325 324 322 322 327 329 332 329 330 336
313 312 313 314 315 313 314 317 317 315 312 310 310 313 313 309 311 315 306 306 308 318 322 322 320 324 322 324 323 324 322 323 320 326 330 327 324 324 324 325 329 332 334 333 335
310 311 311 311 313 315 314 312 315 318 316 312 311 311 314 309 313 308 303 302 303 312 319 324 325 324 325 323 324 325 325 323 325 326 324 327 326 326 322 324 324 327 333 332 333
309 310 311 311 311 312 314 314 312 314 318 315 312 312 314 311 304 316 321 314 306 310 320 323 324 325 324 323 321 327 325 325 325 323 324 325 326 325 325 321 322 320 329 331 330
309 309 309 310 310 311 311 313 313 313 314 318 314 313 313 312 312 317 320 320 315 320 321 320 323 322 324 321 320 320 321 322 321 321 321 321 322 325 325 322 321 327 332 331 331
307 307 307 307 308 309 309 309 312 312 312 315 316 313 313 313 310 308 308 318 314 317 321 320 320 320 321 321 315 315 318 319 320 321 321 322 321 323 323 321 322 329 330 329 330
306 306 306 306 307 307 308 308 310 312 312 312 317 314 315 313 311 308 307 316 317 313 319 320 321 320 320 321 317 319 321 318 318 319 321 320 321 322 320 321 321 321 323 328 329
304 304 304 305 306 308 307 307 308 309 312 312 315 316 316 313 312 310 308 309 317 316 318 319 319 319 320 319 320 320 319 321 318 318 319 320 320 319 317 318 319 318 317 317 317
304 304 303 303 303 305 307 307 306 308 310 312 313 316 316 313 313 313 311 310 316 321 320 318 318 320 320 321 321 319 318 319 318 317 320 320 320 317 316 316 316 315 315 314 313
304 303 303 303 303 304 304 307 305 307 308 312 313 316 313 314 312 312 313 311 321 321 321 320 318 319 318 322 318 321 320 318 316 316 318 319 319 317 314 314 314 315 314 313 313
303 302 303 303 303 303 304 305 306 307 308 312 312 314 312 313 313 311 311 310 314 320 320 320 319 318 319 320 316 317 318 318 317 316 318 317 317 316 314 313 312 312 313 313 313
303 303 302 302 305 303 303 305 304 307 310 309 311 312 313 312 313 311 310 309 315 319 319 321 319 314 314 319 320 316 318 317 316 316 317 316 317 314 313 314 312 311 311 312 313
302 302 302 301 302 303 303 303 304 305 308 309 310 312 313 312 314 312 309 310 314 318 319 316 312 314 315 319 322 322 317 315 316 317 316 316 317 315 313 312 312 312 311 312 312
300 300 302 301 302 302 302 301 303 304 308 309 311 311 312 313 314 312 310 310 316 317 316 317 314 315 316 317 319 320 319 315 318 318 317 316 313 310 312 314 314 313 311 311 311
300 300 302 302 302 302 302 301 301 303 307 305 307 309 309 314 314 313 309 310 316 315 316 315 317 316 318 317 318 316 316 318 316 318 317 316 318 313 314 314 314 312 310 310 309
299 300 302 302 301 301 301 301 302 303 306 306 308 310 311 311 313 312 312 309 312 316 315 312 313 315 316 316 317 314 315 317 317 318 322 315 318 313 313 314 314 312 311 310 310
299 300 301 301 302 300 301 302 304 305 305 308 310 311 310 312 313 314 314 313 316 317 319 315 314 314 314 316 316 316 316 317 323 323 317 312 317 315 310 310 310 309 308 307 307
299 300 301 301 301 300 301 302 304 301 302 306 308 310 311 309 312 313 315 314 313 316 316 318 318 314 313 316 318 319 317 313 312 315 316 313 318 315 312 311 310 309 309 309 308
299 300 300 300 300 300 301 302 302 303 301 307 308 310 311 309 308 312 313 313 314 314 316 317 315 311 312 313 315 318 320 313 312 307 308 312 311 313 312 311 310 311 308 307 308
298 300 300 300 299 300 301 302 301 302 304 303 307 308 311 310 310 311 312 312 313 312 310 312 315 310 313 313 313 315 313 319 317 315 316 314 314 313 314 312 312 313 310 306 304
299 299 299 299 299 300 300 300 300 300 303 305 306 307 306 309 310 310 311 311 311 312 312 311 311 310 312 314 317 316 316 315 314 316 317 312 312 308 311 310 312 310 306 305 303
298 297 299 299 300 299 300 299 299 298 300 303 302 304 308 307 309 310 311 309 310 310 314 313 313 315 313 311 312 314 315 315 316 310 313 311 311 310 308 307 308 307 306 306 305
297 296 298 298 300 299 296 294 298 299 298 301 303 303 303 308 309 309 308 308 308 309 311 312 314 314 314 312 312 315 314 313 314 310 315 317 314 308 308 308 308 307 306 307 308
296 297 297 298 298 296 291 292 297 299 298 299 302 301 302 302 306 308 309 308 308 309 311 311 312 314 312 312 312 315 314 314 314 316 315 313 311 311 309 310 309 307 306 306 307
295 291 292 298 298 296 294 292 297 297 300 300 301 302 303 303 307 308 308 308 308 310 311 312 313 312 312 309 310 312 313 314 315 314 314 312 311 309 309 309 308 308 307 306 305
295 293 297 289 297 296 294 295 294 296 301 302 302 302 303 302 306 308 309 309 310 310 311 311 312 312 312 310 309 312 312 312 313 314 314 312 310 308 307 307 306 305 304 304 303
292 293 294 298 296 297 296 296 296 297 298 300 301 302 303 303 301 305 306 308 307 309 312 312 313 314 314 311 309 312 311 311 311 312 313 315 312 307 307 306 306 304 303 302 300

GFSSW_925_thetae_168.txt.gz
Theta_e
313 314 315 315 315 314 315 317 317 315 313 311 312 314 313 312 310 306 311 307 310 313 313 312 312 316 322 321 323 319 320 321 325 326 328 325 324 320 321 325 328 330 328 329 333
310 311 313 314 313 314 315 314 315 317 316 313 311 311 313 312 309 311 306 303 305 313 320 320 316 321 319 322 322 322 318 318 319 325 328 326 324 326 323 325 328 330 332 332 333
309 309 310 311 313 314 314 315 313 313 318 317 312 311 313 311 309 307 308 308 304 306 320 323 322 322 322 321 322 322 321 319 322 323 323 325 324 325 321 324 323 326 327 330 331
310 307 307 309 311 312 313 313 315 314 312 317 316 312 314 310 307 314 319 316 314 307 318 323 323 322 322 321 320 327 324 322 323 323 322 323 323 324 324 321 321 321 322 330 329
309 309 309 308 309 310 310 311 312 313 313 313 317 314 314 313 310 309 316 311 317 316 320 320 322 320 321 320 319 321 321 323 321 319 320 319 320 320 323 321 321 326 328 329 329
308 307 307 307 308 308 309 309 310 310 313 313 313 316 314 314 311 311 309 308 319 316 321 319 320 318 319 319 314 313 316 318 318 320 319 321 320 320 320 318 321 327 327 328 328
306 307 306 306 306 306 306 307 308 308 309 312 313 316 315 313 312 308 308 308 319 315 319 319 319 320 318 320 317 317 318 317 317 318 319 319 320 320 319 320 320 320 323 326 327
306 306 306 305 305 305 306 307 306 307 308 310 312 313 318 314 313 312 309 308 311 317 317 317 318 319 319 318 319 320 318 314 313 317 318 318 314 317 315 318 318 316 315 316 318
305 305 305 305 304 303 304 306 305 305 307 308 312 312 317 314 313 312 312 309 315 320 317 318 318 319 319 319 318 317 312 316 314 315 318 319 318 316 314 314 315 313 312 313 313
303 303 303 304 303 303 303 303 304 306 306 308 311 314 314 314 313 313 312 312 318 320 320 317 315 315 316 320 310 317 317 315 312 313 317 318 318 317 315 314 314 312 311 311 311
302 303 303 303 303 302 303 304 305 306 307 309 312 312 313 313 312 311 312 311 311 319 321 319 318 316 313 317 314 314 317 315 315 315 318 316 317 316 313 311 311 310 309 310 311
301 302 302 303 303 303 302 304 304 305 306 306 307 311 311 312 314 310 311 311 312 316 317 320 319 313 312 315 317 316 317 316 315 314 316 315 315 313 311 311 311 311 309 309 310
300 301 302 303 301 303 304 304 303 304 306 307 307 307 312 312 314 313 310 309 312 317 318 315 313 313 315 317 320 319 316 315 314 316 315 315 312 309 310 311 310 309 309 309 309
300 300 301 302 302 302 303 303 303 303 306 304 308 308 310 312 314 312 309 310 313 315 316 317 313 313 314 316 318 319 317 314 316 315 313 312 306 301 307 307 312 310 309 309 310
299 299 300 300 302 302 301 302 302 301 306 303 305 307 308 310 313 314 311 311 314 313 315 315 314 313 314 314 316 314 316 318 315 316 316 313 315 310 311 311 310 310 309 308 309
298 299 300 300 299 301 301 301 301 303 305 305 306 309 310 310 311 311 311 311 311 314 314 312 312 312 312 312 315 313 315 316 315 316 319 313 312 307 305 309 312 311 310 309 308
298 298 299 300 299 301 301 302 303 304 303 307 309 309 309 311 311 313 314 314 314 316 316 313 313 313 313 315 314 314 315 310 318 319 315 309 313 310 308 310 310 311 308 307 305
297 298 298 299 299 300 301 302 304 302 301 305 307 308 309 308 309 311 313 314 313 314 316 318 317 313 312 314 316 318 316 312 311 314 314 310 315 313 310 309 310 310 311 307 306
297 298 298 298 299 300 301 303 303 298 300 302 307 309 309 308 307 310 311 312 312 313 315 317 317 311 312 313 314 318 319 311 310 303 308 311 310 310 310 309 309 308 307 307 306
297 297 298 298 300 300 301 302 301 301 302 301 299 305 309 309 309 309 310 311 312 313 312 311 316 310 312 312 313 315 313 318 315 314 313 312 311 311 312 310 308 309 307 304 303
297 297 296 298 300 299 300 301 299 300 302 303 301 299 304 308 309 309 309 308 311 313 314 312 312 311 312 316 316 316 317 315 315 316 315 312 310 306 309 310 310 308 304 303 302
296 297 297 297 299 300 300 299 300 299 300 302 302 302 301 305 308 308 309 308 309 311 314 313 315 310 313 311 312 314 315 315 316 313 316 310 311 307 306 306 308 305 304 302 302
296 297 296 298 300 299 298 298 299 298 298 300 299 302 302 302 307 308 308 306 307 310 312 313 313 316 314 311 310 315 314 313 313 310 315 317 314 307 308 306 305 305 304 304 303
294 297 297 298 296 297 294 293 299 297 298 298 299 301 302 302 302 302 303 306 307 309 311 311 312 314 313 310 310 315 314 313 314 317 315 314 312 309 308 307 305 305 305 305 304
294 292 290 299 297 296 295 293 297 297 297 298 296 300 300 300 300 300 301 301 304 309 310 311 312 310 310 309 311 313 313 313 315 315 315 314 312 311 308 307 307 305 304 304 303
294 294 294 285 297 298 297 295 296 297 298 297 295 298 301 299 300 298 305 308 309 308 310 310 312 309 309 310 310 309 312 313 314 314 313 312 311 309 307 307 306 305 305 305 303
291 292 293 296 297 297 295 295 295 294 296 297 298 298 301 300 300 299 301 302 302 307 309 310 311 311 312 309 310 311 310 311 313 313 313 314 312 310 305 308 308 306 305 304 299

GFSSW_925_thetae_171.txt.gz
Theta_e
312 313 312 313 313 313 314 314 317 317 315 313 312 311 312 311 311 309 308 303 305 311 311 311 310 312 315 319 321 316 318 320 324 325 327 325 323 320 320 324 325 328 327 328 332
311 312 311 312 313 313 313 314 314 315 317 317 314 311 311 313 311 311 307 306 302 309 314 318 313 317 312 320 321 320 315 315 317 322 326 325 323 325 323 326 328 329 331 331 331
311 310 310 309 310 311 312 313 314 314 313 316 317 313 312 313 308 307 315 312 312 306 316 322 319 320 317 320 321 321 316 313 319 322 322 324 324 324 321 324 323 327 325 330 329
310 311 309 308 308 309 311 311 312 314 314 313 316 316 313 312 311 315 315 312 318 306 314 322 321 321 319 319 319 325 323 318 320 322 321 322 321 321 322 321 320 321 322 329 330
308 308 309 309 308 308 310 310 310 311 313 313 313 317 314 312 310 310 310 310 313 308 316 319 320 317 317 318 318 322 321 321 321 320 319 319 320 320 321 320 319 325 322 328 330
307 307 308 308 307 307 308 309 309 309 309 312 313 314 313 314 312 311 311 309 314 316 318 318 317 316 317 318 314 313 318 318 317 319 319 320 319 318 318 316 319 325 325 326 328
305 306 306 307 307 306 307 307 307 308 308 308 312 313 316 314 313 311 309 315 318 314 318 318 319 319 316 319 316 316 316 315 316 317 318 318 314 319 318 319 320 320 321 324 326
305 304 304 306 307 306 305 305 305 305 307 308 309 313 315 315 315 312 309 309 314 317 316 317 318 319 317 317 317 317 314 311 308 316 317 313 310 315 314 317 318 318 317 317 318
303 304 304 304 306 305 305 306 306 304 305 306 309 312 315 314 313 313 312 311 315 318 316 318 317 316 319 317 315 314 307 313 309 314 317 317 316 314 312 315 316 315 314 313 313
303 301 303 303 304 305 304 304 305 305 306 307 308 311 312 315 314 314 313 312 314 318 318 317 314 314 317 315 306 313 317 313 309 309 316 318 319 314 315 312 314 314 312 311 311
301 302 303 302 303 304 304 304 303 304 306 306 306 310 313 312 313 312 312 311 311 318 319 317 316 315 312 317 312 309 315 311 313 312 317 316 316 317 315 313 314 313 312 311 310
300 301 302 302 302 303 304 304 303 304 306 305 305 308 310 312 313 310 312 313 312 317 318 320 318 311 309 314 315 314 315 314 313 313 315 314 314 313 312 311 313 313 311 310 310
299 300 301 302 301 302 304 303 303 304 305 305 305 305 306 311 313 313 311 312 313 313 317 317 312 312 311 314 317 316 315 314 311 314 312 312 309 311 309 309 309 309 310 309 310
298 299 300 301 301 301 302 303 302 302 303 304 305 306 304 308 312 312 310 311 312 313 312 316 313 312 312 313 315 314 313 313 315 314 312 308 305 302 302 303 309 309 308 309 308
298 299 300 300 300 302 301 302 303 301 305 300 304 305 304 306 311 312 310 311 313 313 314 314 313 312 313 313 314 313 315 316 314 314 315 312 313 307 307 306 307 307 307 308 308
297 297 298 299 300 300 301 302 302 303 304 299 303 307 308 307 309 311 312 311 311 313 314 313 311 311 312 311 315 313 315 315 314 314 317 312 311 307 304 304 309 309 308 307 308
297 297 298 298 299 299 299 302 304 305 300 302 306 308 307 308 308 311 314 314 313 315 316 314 314 312 310 312 313 313 314 315 317 318 313 308 311 309 305 306 307 308 309 309 306
297 298 297 298 298 299 299 301 304 303 299 303 306 306 308 306 307 309 312 313 312 313 313 316 317 313 311 312 315 315 312 311 311 313 312 308 312 310 308 307 307 307 307 306 307
297 297 297 297 298 299 298 300 302 300 300 303 305 307 308 307 306 307 310 311 312 312 315 318 316 310 311 312 312 316 317 309 310 300 309 311 309 309 308 307 308 307 307 307 307
297 297 296 297 297 299 299 301 299 302 301 302 299 303 302 307 308 308 309 309 310 311 310 310 313 309 311 312 312 314 313 316 314 313 313 311 310 311 310 308 307 307 306 306 301
297 296 296 297 297 298 300 299 301 300 302 300 297 297 302 308 307 308 308 306 307 309 311 311 311 310 311 314 316 316 316 315 315 313 314 311 310 306 308 307 309 307 305 303 301
295 296 296 297 297 298 300 299 300 300 300 302 300 299 296 303 306 308 307 305 305 308 312 313 312 314 314 311 311 314 315 316 317 317 316 310 311 306 305 305 306 307 303 301 301
296 296 296 298 298 297 299 300 300 300 300 298 298 301 301 298 302 304 305 305 304 307 309 310 312 316 314 310 311 315 314 314 314 310 316 316 313 306 307 307 304 305 302 301 301
296 296 296 297 295 298 297 299 299 298 299 298 299 300 300 301 301 299 301 301 300 300 302 302 310 312 312 312 311 316 315 314 315 317 315 315 312 308 307 306 304 304 303 303 302
295 293 294 296 298 297 297 297 299 299 298 298 298 298 297 296 299 300 300 300 300 301 302 306 311 309 309 310 310 312 314 314 315 315 315 314 312 311 309 306 304 303 303 304 303
292 294 290 294 296 297 298 296 296 297 298 297 295 297 297 293 297 297 299 300 302 305 305 306 311 309 309 308 309 311 311 313 315 314 314 313 310 309 309 305 305 303 304 305 303
291 292 294 298 297 297 295 295 295 295 297 297 297 297 299 299 297 298 299 301 302 302 302 301 308 311 311 307 307 309 310 311 311 312 312 314 312 310 307 305 306 304 304 304 301